Location: Fouquenies
(49.4624°N, 2.0492°E)
Time: 23:59:34
(UTC+00:00)

Cosmos 2278 Rocket - Pass Details

Date: 03 February 2023
Orbit: 841 x 845 km, 71.0° (Epoch: 01 April)

Event Time Altitude Azimuth Distance (km) Brightness Sun altitude
Rises 18:10:27 0° 334° (NNW) 3,416 5.6 -13.2°
Reaches altitude 10° 18:13:39 10° 352° (N) 2,478 4.6 -13.7°
Maximum altitude 18:17:41 20° 37° (NE) 1,888 3.6 -14.3°
Enters shadow 18:19:03 18° 56° (NE) 1,962 3.6 -14.6°
